Rbgn^[z[y[W
メイン
   新天体発見情報
     Comet C/2018 V4 (Africano)
投稿するにはまず登録を

スレッド表示 | 古いものから 前のトピック | 次のトピック | 下へ
投稿者 スレッド
佐藤裕久
投稿日時: 2018-12-12 1:13
モデレータ
登録日: 2005-6-12
居住地: 日本
投稿: 1977
オンライン
Comet C/2018 V4 (Africano)

Brian M. Africanoの通報によると、11月4日、Mt Lemmonの1.5-m 反射望遠鏡で得た画像から彗星を
発見した。4枚の20秒露出で、拡散する球状の数秒角向こう側が、p.a.約225°(シーイングは約2".0)
に数秒角の尾の可能性がある。
小惑星センターのPCCP webpageに公表後、R. Weryk (10月23.6日UT、Haleakala にある1.8-m Pan-
STARRS2 Ritchey-Chretien望遠鏡による発見前のイメージを突き止め、光度を19.5-20.0等と測定した。
この天体は、非常に暗い拡散したコマがあるが、スタックイメージで尾は南西に4"伸びて見える)や
佐藤英貴氏(東京都文京区, iTelescope天文台,11月8.72日, 60秒露出12枚のスタック,   0.51-m f/6.8
アストログラフ, Siding Spring, 遠隔操作:中程度の集光のある8"の
コマがあるものの明らかな尾はない。4".9の円形範囲で測定した全光度は19.9等であった)らCCD観測者
によって彗星状と観測された。

発見位置は次のとおり、

     2018 UT             R.A. (2000) Decl.       Mag.   Observer
     Nov.  4.42953    5 23 38.09   -10 12 33.0   19.7   Africano
           4.43472    5 23 37.80   -10 12 30.7   19.9     "
           4.43991    5 23 37.53   -10 12 28.1   19.8     "
           4.44510    5 23 37.27   -10 12 26.0   20.1     "
           4.49868    5 23 34.48   -10 12 03.6   19.9     "
           4.50444    5 23 34.15   -10 12 01.5   19.8     "
           4.51023    5 23 33.81   -10 11 58.7   21.1     "
           4.51605    5 23 33.45   -10 11 56.2   19.8     "
           4.52429    5 23 33.04   -10 11 53.0   20.9     "
           4.52533    5 23 33.07   -10 11 52.5   19.9     "
           4.52585    5 23 32.97   -10 11 51.9   19.6     "

準放物線軌道要素と位置推算表は次のとおり、

Orbital elements:
    C/2018 V4 (Africano)
Epoch 2019 Mar. 18.0 TT = JDT 2458560.5
T 2019 Mar. 1.84297 TT                                  MPCW
q   3.1992986            (2000.0)            P               Q
z  +0.0041581      Peri.    0.04906     +0.20125035     -0.35069085
 +/-0.0003134      Node    78.37236     +0.89839192     -0.30602783
e   0.9866969      Incl.   69.03102     +0.39037195     +0.88507790
From 117 observations 2018 Oct. 23-Nov. 29, mean residual 0".6.

    C/2018 V4 (Africano)
Epoch 2019 Apr. 27.0 TT = JDT 2458600.5
T 2019 Mar. 1.83178 TT                                  MPCW
q   3.1992872            (2000.0)            P               Q
z  +0.0041620      Peri.    0.04635     +0.20126683     -0.35068027
 +/-0.0003134      Node    78.37236     +0.89840640     -0.30598576
e   0.9866846      Incl.   69.03109     +0.39033012     +0.88509664
From 117 observations 2018 Oct. 23-Nov. 29, mean residual 0".6.

Ephemeris:
    C/2018 V4 (Africano)
Date    TT    R. A. (2000) Decl.     Delta      r     Elong.  Phase   m1
2018 11 01    05 26 26.7 -10 34 54   2.6935  3.3992   128.3    13.2  20.0
...
2018 11 16    05 12 08.4 -08 36 42   2.5203  3.3541   141.8    10.5  19.8
...
2018 11 24    05 02 39.5 -07 10 11   2.4533  3.3322   148.0     9.0  19.7
...
2018 11 30    04 54 57.7 -05 53 59   2.4169  3.3168   151.4     8.2  19.6
2018 12 01    04 53 38.7 -05 40 21   2.4120  3.3143   151.8     8.1  19.6
2018 12 02    04 52 19.2 -05 26 28   2.4075  3.3118   152.2     8.0  19.6
...
2018 12 08    04 44 16.8 -03 57 57   2.3883  3.2976   153.2     7.7  19.6
...
2018 12 16    04 33 35.9 -01 47 29   2.3837  3.2800   151.1     8.3  19.5
...
2018 12 31    04 15 19.6 +02 43 17   2.4391  3.2516   139.7    11.3  19.6

(CBET 4579、MPEC 2018-X13)


スレッド表示 | 古いものから 前のトピック | 次のトピック | トップ

投稿するにはまず登録を
 
© 1999 Tsutomu Seki.